User: anonymous   Login
Location: Mt. Chestnut Observatory
(40.9038°N, 79.9956°W)
Time: 15:59:05
(UTC-05:00)
Language:

Cosmos 2034 Rocket - Orbit

View from above orbital plane
View from above orbital plane
View from above satellite
View from above satellite

Ground track
Ground track

The orbit data is extracted from the following two-line orbital elements,

1 20150U 89059B   18020.35002823  .00000067  00000-0  53370-4 0  9998
2 20150  82.9414 292.9801 0029932  38.0233 101.0998 13.75629495430245
Epoch (UTC): 20 January 2018 08:24:02
Eccentricity: 0.0029932
inclination: 82.9414°
perigee height: 957 km
apogee height: 1001 km
right ascension of ascending node: 292.9801°
argument of perigee: 38.0233°
revolutions per day: 13.75629495
mean anomaly at epoch: 101.0998°
orbit number at epoch: 43024

The dashed part of the orbit path shows where the satellite is in the earth's shadow,  

DLR